Flag for Poland Weather past 2 weeks in Olsztyn, Poland

Now
66 °F

Scattered clouds.


Feels Like: 66 °F
Forecast: 50 / 70 °F
Wind: 6 mph from Northwest

Location: Ketrzyn

Current Time: Aug 28, 2014 at 6:00:29 PM

Latest Report: Aug 28, 2014 at 5:00 PM


Visibility: 19 mi

Pressure: 29.93 "Hg

Humidity: 45%

Dew point: 44 °F

Location of OlsztynLocation

Historic Weather in Olsztyn — Graph

°F

Olsztyn temperature yesterday

Maximum temperature yesterday: 63 °F (at 2:00 PM)
Minimum temperature yesterday: 46 °F (at 3:00 AM)
Average temperature yesterday: 54 °F

Past Weeks' High & Low Weather Summary

 TemperatureHumidityPressure
High73 °F (Aug 15, 12:00 PM)96% (Aug 14, 8:00 AM)30.01 "Hg (Aug 14, 8:00 AM)
Low46 °F (Aug 27, 3:00 AM)38% (Aug 28, 4:00 PM)29.50 "Hg (Aug 14, 8:00 AM)
Average59 °F74%29.82 "Hg
* Reported Aug 13 8:00 PM — Aug 28 4:00 PM, Olsztyn, Weather by CustomWeather, © 2014

Note: Actual official high and low records may vary slightly from our data, if they occured in-between our weather recording intervals... More about our weather records

Advertising

Olsztyn weather history for previous 24 hours

 ConditionsComfort  
Time TempWeatherWind HumidityBarometerVisibility
4:00 PM
Aug 28
68 °FPartly sunny.7 mph38%29.92 "Hg22 mi
3:00 PM67 °FScattered clouds.7 mph41%29.91 "Hg22 mi
2:00 PM69 °FScattered clouds.7 mph39%29.90 "Hg22 mi
1:00 PM67 °FPartly sunny.7 mph57%29.89 "Hg22 mi
12:00 PM64 °FPartly sunny.7 mph56%29.90 "Hg22 mi
11:00 AM65 °FPartly sunny.6 mph68%29.90 "Hg22 mi
10:00 AM62 °FScattered clouds.3 mph81%29.89 "Hg19 mi
9:00 AM58 °FPartly sunny.5 mph89%29.90 "Hg17 mi
8:00 AM56 °FScattered clouds.3 mph93%29.89 "Hg12 mi
7:00 AM52 °FPassing clouds.2 mph96%29.89 "Hg11 mi
6:00 AM50 °FPassing clouds.3 mph95%29.88 "Hg8 mi
5:00 AM50 °FPassing clouds.2 mph95%29.88 "Hg14 mi
4:00 AM51 °FPassing clouds.1 mph95%29.87 "Hg11 mi
3:00 AM52 °FClear.3 mph95%29.86 "Hg16 mi
2:00 AM52 °FClear.2 mph95%29.86 "Hg19 mi
1:00 AM52 °FClear.3 mph93%29.86 "Hg22 mi
12:00 AM53 °FPassing clouds.2 mph92%29.85 "Hg25 mi
11:00 PM
Aug 27
53 °FPassing clouds.3 mph92%29.85 "Hg25 mi
10:00 PM54 °FClear.3 mph90%29.84 "Hg22 mi
9:00 PM55 °FPassing clouds.3 mph87%29.83 "Hg31 mi
8:00 PM56 °FPassing clouds.5 mph84%29.82 "Hg28 mi
7:00 PM58 °FPartly sunny.5 mph82%29.81 "Hg28 mi
6:00 PM62 °FPartly sunny.7 mph68%29.78 "Hg28 mi
Weather by CustomWeather, © 2014

See weather overviewHow to use our weather pages